Regional Weather Roundup
Issued by NWS

Home | Current Version | Previous Version | Text Only | Print | Product List | Glossary On
Versions: 1 2 3 4 5 6 7 8 9 10 11 12 13 14 15 16 17 18 19 20 21 22 23 24 25 26 27 28 29 30 31 32 33 34 35 36 37 38 39 40 41 42 43 44 45 46 47 48 49 50
000
ASUS43 KLSX 291607
RWRMO

WEATHER SUMMARY FOR MISSOURI
NATIONAL WEATHER SERVICE SPRINGFIELD MO
1100 AM CDT FRI AUG 29 2014

NOTE: "FAIR" INDICATES FEW OR NO CLOUDS BELOW 12,000 FEET WITH NO
       SIGNIFICANT WEATHER AND/OR OBSTRUCTIONS TO VISIBILITY.
       CURRENT SKY AND/OR WEATHER CONDITIONS ARE NOT AVAILABLE FOR
       CHILLICOTHE AND FARMINGTON.

MOZ001>031-035>038-043-044-053-054-291700-
...NORTHERN AND WESTERN MISSOURI...

CITY           SKY/WX    TMP DP  RH WIND       PRES   REMARKS
KANSAS CTY INT CLOUDY    77  66  68 SW12      29.88S
KANSAS C DTWN  PTSUNNY   81  65  58 W9        29.86S
LEE`S SUMMIT   PTSUNNY   77  67  71 SW10      29.89S
ST JOSEPH      CLOUDY    75  68  78 SW8       29.87R
CHILLICOTHE      N/A     82  70  66 S7        29.88F
KIRKSVILLE     SUNNY     83  70  64 S8        29.91S

$$
MOZ066>068-077>081-088>096-101>105-291700-
...SOUTHWEST MISSOURI...

CITY           SKY/WX    TMP DP  RH WIND       PRES   REMARKS
SPRINGFIELD    PTSUNNY   85  66  53 S14       29.94R
JOPLIN         PTSUNNY   75  69  81 SW12      29.94R

$$
MOZ032>034-039>042-045>050-055>058-069>072-291700-
...CENTRAL MISSOURI...

CITY           SKY/WX    TMP DP  RH WIND       PRES   REMARKS
COLUMBIA       SUNNY     86  67  52 S13       29.93S
JEFFERSON CITY MOSUNNY   85  66  53 S6        29.91F
ROLLA          MOSUNNY   87  62  43 S15       29.95S
SEDALIA        MOSUNNY   84  67  56 S14       29.91F
WHITEMAN AFB   MOSUNNY   82  70  66 SW17      29.89S
OSAGE BEACH    SUNNY     84  66  54 SE9       29.92F

$$
MOZ051-052-059>065-291700-
...EAST CENTRAL MISSOURI...

CITY           SKY/WX    TMP DP  RH WIND       PRES   REMARKS
ST LOUIS INTL  MOSUNNY   87  72  60 SW8       29.97S HX  93
SPIRIT OF STL  MOSUNNY   85  70  60 S3        29.95S
ST CHARLES     SUNNY     84  73  69 S8        29.95F HX  90

$$
MOZ072>076-082>087-097>100-106>115-291700-
...SOUTH CENTRAL AND SOUTHEAST MISSOURI...

CITY           SKY/WX    TMP DP  RH WIND       PRES   REMARKS
CAPE GIRARDEAU MOSUNNY   84  74  71 SW6       29.98F HX  91
FARMINGTON     CLOUDY    81  70  69 S7        30.01F
POPLAR BLUFF   SUNNY     86  68  54 SE7       29.96F
WEST PLAINS    SUNNY     84  66  54 S13G18    29.99F

$$



USA.gov is the U.S. government's official web portal to all federal, state and local government web resources and services.